| time (UTC) | temp F | wind direction | speed knots | gust knots | rain 1hr in | rain 24hr in | rain mn in | humidity % | barometer mb |
| 20260831001850 | 61 | 265 | 0.0 | 0.0 | 0.00 | 0.13 | 0.13 | 84 | 1013.2 |
| 20260831000827 | 61 | 266 | 0.0 | 0.0 | 0.00 | 0.13 | 0.13 | 82 | 1013.1 |
| 20260830235838 | 61 | 266 | 0.0 | 0.0 | 0.00 | 0.13 | 0.13 | 81 | 1012.9 |
| 20260830234847 | 62 | 256 | 0.0 | 0.0 | 0.00 | 0.13 | 0.13 | 82 | 1012.8 |
| 20260830233858 | 62 | 14 | 0.0 | 0.0 | 0.00 | 0.13 | 0.13 | 80 | 1012.4 |
| 20260830232840 | 63 | 122 | 0.0 | 0.0 | 0.00 | 0.13 | 0.13 | 76 | 1013.1 |
| 20260830230715 | 65 | 319 | 0.0 | 0.0 | 0.00 | 0.13 | 0.13 | 69 | 1013.1 |
| 20260830225722 | 65 | 319 | 0.0 | 0.0 | 0.00 | 0.13 | 0.13 | 68 | 1013.2 |
| 20260830224724 | 66 | 351 | 0.0 | 0.0 | 0.00 | 0.13 | 0.13 | 67 | 1013.2 |
| 20260830223732 | 66 | 28 | 0.0 | 0.0 | 0.00 | 0.13 | 0.13 | 67 | 1013.1 |
| 20260830222728 | 66 | 4 | 0.0 | 0.9 | 0.00 | 0.13 | 0.13 | 63 | 1013.2 |
| 20260830221707 | 67 | 6 | 0.0 | 1.7 | 0.00 | 0.13 | 0.13 | 62 | 1013.4 |
| 20260830220641 | 67 | 121 | 0.0 | 0.0 | 0.00 | 0.13 | 0.13 | 63 | 1013.4 |
| 20260830213354 | 64 | 119 | 0.0 | 2.6 | 0.00 | 0.13 | 0.13 | 71 | 1014.0 |
| 20260830212331 | 63 | 115 | 0.0 | 1.7 | 0.00 | 0.13 | 0.13 | 75 | 1014.2 |
| 20260830211342 | 63 | 82 | 0.0 | 0.0 | 0.00 | 0.13 | 0.13 | 78 | 1014.4 |
| 20260830210325 | 62 | 354 | 0.0 | 0.9 | 0.00 | 0.13 | 0.13 | 76 | 1014.6 |
| 20260830205253 | 62 | 341 | 0.0 | 1.7 | 0.00 | 0.13 | 0.13 | 78 | 1014.7 |
| 20260830204246 | 61 | 141 | 0.0 | 2.6 | 0.00 | 0.13 | 0.13 | 79 | 1014.8 |
| 20260830202128 | 61 | 346 | 0.0 | 0.9 | 0.00 | 0.13 | 0.13 | 82 | 1014.8 |
| 20260830201129 | 61 | 133 | 0.0 | 4.3 | 0.00 | 0.13 | 0.13 | 81 | 1014.6 |
| 20260830195019 | 60 | 112 | 0.0 | 3.5 | 0.00 | 0.13 | 0.13 | 88 | 1015.3 |
| 20260830194031 | 60 | 148 | 0.0 | 0.9 | 0.00 | 0.13 | 0.13 | 84 | 1015.1 |
| 20260830193013 | 60 | 338 | 0.0 | 0.0 | 0.00 | 0.13 | 0.13 | 88 | 1014.9 |
| 20260830192017 | 58 | 359 | 0.0 | 0.9 | 0.00 | 0.13 | 0.13 | 91 | 1015.0 |
| 20260830191004 | 57 | 151 | 0.0 | 0.0 | 0.08 | 0.13 | 0.13 | 89 | 1015.3 |
| 20260830190026 | 57 | 4 | 0.9 | 0.0 | 0.13 | 0.13 | 0.13 | 85 | 1014.5 |
| 20260830185031 | 57 | 23 | 0.9 | 7.0 | 0.00 | 0.08 | 0.08 | 85 | 1014.2 |
| 20260830184015 | 57 | 191 | 1.7 | 10.4 | 0.04 | 0.08 | 0.08 | 86 | 1013.5 |
| 20260830183020 | 56 | 345 | 6.1 | 17.4 | 0.10 | 0.08 | 0.08 | 85 | 1013.1 |
| 20260830181954 | 60 | 324 | 7.0 | 20.0 | 0.20 | 0.01 | 0.01 | 77 | 1012.3 |
| 20260830180923 | 64 | 321 | 9.6 | 27.8 | 0.00 | 0.00 | 0.00 | 63 | 1012.0 |
| 20260830175938 | 70 | 8 | 8.7 | 27.8 | 0.00 | 0.00 | 0.00 | 54 | 1011.2 |
| 20260830174951 | 73 | 33 | 0.9 | 8.7 | 0.00 | 0.04 | 0.00 | 52 | 1010.3 |
| 20260830172902 | 70 | 6 | 1.7 | 6.1 | 0.00 | 0.09 | 0.00 | 60 | 1010.5 |
| 20260830171909 | 69 | 18 | 2.6 | 7.0 | 0.00 | 0.09 | 0.00 | 59 | 1010.8 |
| 20260830170845 | 68 | 343 | 2.6 | 7.0 | 0.00 | 0.09 | 0.00 | 61 | 1010.9 |
| 20260830165813 | 69 | 29 | 1.7 | 7.8 | 0.00 | 0.09 | 0.00 | 59 | 1011.0 |
| 20260830162622 | 65 | 338 | 0.0 | 4.3 | 0.00 | 0.09 | 0.00 | 67 | 1011.3 |
| 20260830161643 | 64 | 4 | 0.9 | 4.3 | 0.00 | 0.09 | 0.00 | 70 | 1011.2 |
| 20260830155453 | 63 | 30 | 0.0 | 2.6 | 0.00 | 0.09 | 0.00 | 71 | 1011.6 |
| 20260830154431 | 62 | 350 | 0.0 | 1.7 | 0.00 | 0.09 | 0.00 | 74 | 1011.8 |
| 20260830153412 | 61 | 340 | 0.0 | 3.5 | 0.00 | 0.09 | 0.00 | 77 | 1012.1 |
| 20260830152434 | 60 | 348 | 0.0 | 0.0 | 0.00 | 0.09 | 0.00 | 77 | 1012.1 |
| 20260830151417 | 59 | 347 | 0.0 | 1.7 | 0.00 | 0.09 | 0.00 | 77 | 1012.2 |
| 20260830150433 | 59 | 117 | 0.0 | 0.9 | 0.00 | 0.09 | 0.00 | 78 | 1012.2 |
| 20260830145436 | 59 | 14 | 0.0 | 0.0 | 0.00 | 0.09 | 0.00 | 80 | 1012.4 |
| 20260830144452 | 58 | 13 | 0.0 | 0.0 | 0.00 | 0.09 | 0.00 | 83 | 1012.4 |
| 20260830143459 | 57 | 13 | 0.0 | 0.0 | 0.00 | 0.09 | 0.00 | 85 | 1012.5 |
| 20260830142506 | 57 | 336 | 0.0 | 0.0 | 0.00 | 0.09 | 0.00 | 86 | 1012.5 |
| 20260830141515 | 56 | 127 | 0.0 | 0.0 | 0.00 | 0.09 | 0.00 | 87 | 1012.6 |
| 20260830140513 | 55 | 338 | 0.0 | 0.0 | 0.00 | 0.09 | 0.00 | 89 | 1012.7 |
| 20260830135538 | 54 | 146 | 0.0 | 0.0 | 0.00 | 0.09 | 0.00 | 90 | 1013.0 |
| 20260830134550 | 54 | 147 | 0.0 | 0.0 | 0.00 | 0.09 | 0.00 | 89 | 1013.0 |
| 20260830133605 | 54 | 119 | 0.0 | 0.0 | 0.00 | 0.09 | 0.00 | 90 | 1013.1 |
| 20260830132610 | 54 | 119 | 0.0 | 0.0 | 0.00 | 0.09 | 0.00 | 90 | 1013.3 |
| 20260830130518 | 53 | 131 | 0.0 | 0.0 | 0.00 | 0.09 | 0.00 | 91 | 1013.3 |
| 20260830125532 | 53 | 131 | 0.0 | 0.0 | 0.00 | 0.09 | 0.00 | 91 | 1013.0 |
| 20260830124530 | 52 | 5 | 0.0 | 0.0 | 0.00 | 0.09 | 0.00 | 90 | 1012.5 |
| 20260830123526 | 52 | 30 | 0.0 | 1.7 | 0.00 | 0.09 | 0.00 | 91 | 1012.0 |
| 20260830122523 | 51 | 333 | 0.0 | 0.0 | 0.00 | 0.09 | 0.00 | 92 | 1012.1 |
| 20260830120424 | 51 | 150 | 0.0 | 0.0 | 0.00 | 0.09 | 0.00 | 91 | 1011.5 |
| 20260830114258 | 52 | 150 | 0.0 | 0.0 | 0.00 | 0.09 | 0.00 | 91 | 1011.3 |
| 20260830112219 | 52 | 150 | 0.0 | 0.0 | 0.00 | 0.09 | 0.00 | 90 | 1011.3 |
| 20260830111154 | 52 | 150 | 0.0 | 0.0 | 0.00 | 0.09 | 0.00 | 91 | 1011.5 |
| 20260830110214 | 51 | 135 | 0.0 | 0.0 | 0.00 | 0.09 | 0.00 | 91 | 1011.5 |
| 20260830105227 | 52 | 136 | 0.0 | 0.0 | 0.00 | 0.09 | 0.00 | 91 | 1011.4 |
| 20260830104249 | 52 | 135 | 0.0 | 0.0 | 0.00 | 0.09 | 0.00 | 91 | 1011.2 |
| 20260830103216 | 52 | 135 | 0.0 | 0.0 | 0.00 | 0.09 | 0.00 | 90 | 1011.3 |
| 20260830102237 | 52 | 135 | 0.0 | 0.0 | 0.00 | 0.09 | 0.00 | 90 | 1011.2 |
| 20260830101248 | 53 | 135 | 0.0 | 0.0 | 0.00 | 0.09 | 0.00 | 89 | 1011.4 |
| 20260830100258 | 53 | 136 | 0.0 | 0.0 | 0.00 | 0.09 | 0.00 | 89 | 1011.5 |
| 20260830095253 | 53 | 141 | 0.0 | 0.0 | 0.00 | 0.09 | 0.00 | 88 | 1011.5 |
| 20260830094312 | 54 | 141 | 0.0 | 0.0 | 0.00 | 0.09 | 0.00 | 87 | 1011.5 |
| 20260830093258 | 54 | 141 | 0.0 | 0.0 | 0.00 | 0.09 | 0.00 | 86 | 1011.4 |
| 20260830092255 | 55 | 141 | 0.0 | 0.0 | 0.00 | 0.09 | 0.00 | 86 | 1011.4 |
| 20260830090353 | 56 | 141 | 0.0 | 0.0 | 0.00 | 0.09 | 0.00 | 85 | 1011.4 |
| 20260830084253 | 56 | 141 | 0.0 | 0.0 | 0.00 | 0.09 | 0.00 | 82 | 1011.3 |
| 20260830083303 | 57 | 141 | 0.0 | 0.0 | 0.00 | 0.09 | 0.00 | 81 | 1011.4 |
| 20260830082250 | 57 | 141 | 0.0 | 0.0 | 0.00 | 0.09 | 0.00 | 81 | 1011.3 |
| 20260830081220 | 57 | 141 | 0.0 | 0.0 | 0.00 | 0.09 | 0.00 | 79 | 1011.5 |
| 20260830080223 | 58 | 141 | 0.0 | 0.0 | 0.00 | 0.09 | 0.00 | 79 | 1011.5 |
| 20260830075228 | 58 | 120 | 0.0 | 0.0 | 0.00 | 0.09 | 0.00 | 79 | 1011.6 |
| 20260830074201 | 58 | 148 | 0.0 | 0.0 | 0.00 | 0.09 | 0.00 | 78 | 1011.5 |
| 20260830072107 | 58 | 156 | 0.0 | 0.0 | 0.00 | 0.09 | 0.00 | 78 | 1011.6 |
| 20260830071125 | 58 | 124 | 0.0 | 0.0 | 0.00 | 0.09 | 0.00 | 77 | 1011.6 |
| 20260830070109 | 59 | 172 | 0.0 | 0.0 | 0.00 | 0.09 | 0.00 | 76 | 1011.5 |
| 20260830065052 | 59 | 114 | 0.0 | 0.0 | 0.00 | 0.09 | 0.00 | 76 | 1011.6 |
| 20260830064115 | 59 | 145 | 0.0 | 0.0 | 0.00 | 0.09 | 0.00 | 75 | 1011.6 |
| 20260830063137 | 59 | 148 | 0.0 | 0.0 | 0.00 | 0.09 | 0.00 | 76 | 1011.5 |
| 20260830062131 | 59 | 164 | 0.0 | 1.7 | 0.00 | 0.09 | 0.00 | 75 | 1011.7 |
| 20260830061142 | 60 | 131 | 0.0 | 1.7 | 0.00 | 0.09 | 0.00 | 76 | 1011.8 |
| 20260830060147 | 60 | 141 | 0.0 | 0.9 | 0.00 | 0.09 | 0.00 | 75 | 1011.8 |
| 20260830055124 | 60 | 160 | 0.0 | 0.0 | 0.00 | 0.09 | 0.09 | 74 | 1011.9 |
| 20260830054115 | 60 | 160 | 0.0 | 0.0 | 0.00 | 0.09 | 0.09 | 73 | 1012.1 |
| 20260830053128 | 60 | 160 | 0.0 | 0.0 | 0.00 | 0.09 | 0.09 | 74 | 1012.1 |
| 20260830052108 | 60 | 160 | 0.0 | 0.0 | 0.00 | 0.09 | 0.09 | 74 | 1012.0 |
| 20260830051038 | 61 | 134 | 0.0 | 0.0 | 0.00 | 0.09 | 0.09 | 74 | 1012.0 |
| 20260830050004 | 61 | 14 | 0.0 | 0.0 | 0.00 | 0.09 | 0.09 | 72 | 1012.0 |
| 20260830045026 | 61 | 6 | 0.0 | 1.7 | 0.00 | 0.09 | 0.09 | 73 | 1012.1 |
| 20260830044025 | 60 | 338 | 0.0 | 0.9 | 0.00 | 0.09 | 0.09 | 73 | 1012.1 |
| 20260830043009 | 60 | 354 | 0.0 | 0.0 | 0.00 | 0.09 | 0.09 | 74 | 1012.0 |
| 20260830041956 | 60 | 354 | 0.0 | 0.0 | 0.00 | 0.09 | 0.09 | 73 | 1012.1 |
| 20260830041021 | 61 | 354 | 0.0 | 0.0 | 0.00 | 0.09 | 0.09 | 72 | 1012.0 |
| 20260830040030 | 60 | 345 | 0.0 | 0.0 | 0.00 | 0.09 | 0.09 | 71 | 1012.0 |
| 20260830035039 | 60 | 34 | 0.0 | 0.0 | 0.00 | 0.09 | 0.09 | 72 | 1011.8 |
| 20260830034052 | 60 | 112 | 0.0 | 0.0 | 0.00 | 0.09 | 0.09 | 72 | 1011.7 |
| 20260830033109 | 61 | 111 | 0.0 | 0.0 | 0.00 | 0.09 | 0.09 | 71 | 1011.6 |
| 20260830032118 | 61 | 9 | 0.0 | 0.0 | 0.00 | 0.09 | 0.09 | 68 | 1011.5 |
| 20260830025926 | 62 | 257 | 0.0 | 0.0 | 0.00 | 0.09 | 0.09 | 67 | 1011.3 |
| 20260830022651 | 64 | 324 | 0.0 | 0.9 | 0.00 | 0.09 | 0.09 | 62 | 1011.3 |
| 20260830021713 | 65 | 358 | 0.0 | 0.9 | 0.00 | 0.09 | 0.09 | 61 | 1011.2 |
| 20260830015616 | 66 | 328 | 0.0 | 0.0 | 0.00 | 0.09 | 0.09 | 58 | 1011.2 |
| 20260830014600 | 66 | 328 | 0.9 | 6.1 | 0.00 | 0.09 | 0.09 | 56 | 1011.3 |
| 20260830012408 | 67 | 12 | 5.2 | 14.8 | 0.00 | 0.09 | 0.09 | 54 | 1011.1 |
| 20260830011345 | 68 | 27 | 7.0 | 14.8 | 0.00 | 0.09 | 0.09 | 52 | 1010.6 |
| 20260830010401 | 68 | 343 | 5.2 | 12.2 | 0.00 | 0.09 | 0.09 | 53 | 1010.2 |
| 20260830005403 | 68 | 36 | 4.3 | 15.6 | 0.00 | 0.09 | 0.09 | 55 | 1009.7 |
| 20260830004401 | 70 | 4 | 4.3 | 15.6 | 0.00 | 0.09 | 0.09 | 52 | 1009.4 |
| 20260830003353 | 74 | 274 | 3.5 | 13.9 | 0.00 | 0.09 | 0.09 | 45 | 1008.6 |